Radiation Dose at Monitoring Post of Fukushima Daini Nuclear Power Station
Date,Time,MP-1(microSv/h),MP-2(microSv/h),MP-3(microSv/h),MP-4(microSv/h),MP-5(microSv/h),MP-6(microSv/h),MP-7(microSv/h),Wind Direction,Wind Velocity(m/s),Rain
2015/04/13,00:00,0.535,0.330,0.555,0.517,0.549,0.249,0.221,south,3.2,No
2015/04/13,00:10,0.535,0.330,0.555,0.516,0.553,0.248,0.221,south,3.2,No
2015/04/13,00:20,0.536,0.331,0.557,0.515,0.552,0.248,0.219,south,3.6,No
2015/04/13,00:30,0.535,0.328,0.557,0.518,0.549,0.248,0.220,south,3.4,No
2015/04/13,00:40,0.532,0.329,0.555,0.516,0.552,0.248,0.220,south,3.9,No
2015/04/13,00:50,0.537,0.330,0.556,0.516,0.552,0.248,0.221,south,4.5,No
2015/04/13,01:00,0.534,0.329,0.556,0.516,0.550,0.249,0.221,south,4.2,No
2015/04/13,01:10,0.535,0.329,0.557,0.515,0.550,0.248,0.221,south,4.5,No
2015/04/13,01:20,0.536,0.329,0.556,0.515,0.552,0.249,0.221,south,5.0,No
2015/04/13,01:30,0.534,0.329,0.556,0.517,0.551,0.248,0.221,south,5.2,No
2015/04/13,01:40,0.534,0.330,0.554,0.518,0.551,0.250,0.221,south,4.9,No
2015/04/13,01:50,0.536,0.329,0.555,0.514,0.552,0.248,0.220,south,4.8,No
2015/04/13,02:00,0.534,0.330,0.557,0.516,0.549,0.249,0.220,south,5.0,No
2015/04/13,02:10,0.534,0.328,0.555,0.517,0.549,0.249,0.221,south,4.8,No
2015/04/13,02:20,0.537,0.329,0.556,0.514,0.551,0.249,0.220,south,4.5,No
2015/04/13,02:30,0.534,0.329,0.557,0.516,0.550,0.248,0.219,south,4.7,No
2015/04/13,02:40,0.534,0.330,0.555,0.517,0.549,0.248,0.220,south,3.9,No
2015/04/13,02:50,0.534,0.329,0.554,0.516,0.551,0.248,0.220,south,4.1,No
2015/04/13,03:00,0.536,0.328,0.557,0.513,0.551,0.248,0.220,south,4.4,No
2015/04/13,03:10,0.535,0.329,0.557,0.517,0.549,0.248,0.220,south,4.2,No
2015/04/13,03:20,0.535,0.328,0.556,0.518,0.550,0.247,0.220,south,4.6,No
2015/04/13,03:30,0.537,0.329,0.555,0.514,0.549,0.249,0.220,south,3.5,No
2015/04/13,03:40,0.534,0.328,0.558,0.516,0.548,0.249,0.220,south,3.7,No
2015/04/13,03:50,0.534,0.330,0.556,0.516,0.550,0.250,0.220,south,4.0,No
2015/04/13,04:00,0.535,0.330,0.555,0.517,0.550,0.248,0.221,south-southwest,3.8,No
2015/04/13,04:10,0.534,0.328,0.556,0.515,0.549,0.249,0.220,south-southwest,2.5,No
2015/04/13,04:20,0.535,0.330,0.556,0.516,0.551,0.248,0.221,south-southwest,2.3,No
2015/04/13,04:30,0.533,0.330,0.554,0.517,0.550,0.248,0.220,southwest,1.7,No
2015/04/13,04:40,0.534,0.330,0.553,0.515,0.548,0.247,0.220,southwest,2.5,No
2015/04/13,04:50,0.533,0.329,0.557,0.515,0.553,0.247,0.219,south-southwest,2.3,No
2015/04/13,05:00,0.537,0.329,0.555,0.515,0.550,0.249,0.219,southwest,1.1,No
2015/04/13,05:10,0.535,0.329,0.555,0.517,0.550,0.249,0.221,-,CALM,No
2015/04/13,05:20,0.534,0.328,0.558,0.515,0.550,0.249,0.221,-,CALM,No
2015/04/13,05:30,0.536,0.328,0.557,0.515,0.551,0.248,0.222,-,CALM,No
2015/04/13,05:40,0.534,0.330,0.555,0.518,0.552,0.248,0.220,northwest,0.7,No
2015/04/13,05:50,0.533,0.329,0.555,0.515,0.551,0.248,0.221,north,0.6,No
2015/04/13,06:00,0.537,0.329,0.558,0.515,0.552,0.247,0.221,north,1.1,No
2015/04/13,06:10,0.535,0.330,0.555,0.516,0.551,0.248,0.220,north,1.3,No
2015/04/13,06:20,0.534,0.331,0.556,0.517,0.550,0.248,0.221,north,1.1,No
2015/04/13,06:30,0.536,0.330,0.557,0.516,0.550,0.248,0.220,north,1.1,No
2015/04/13,06:40,0.535,0.330,0.555,0.517,0.550,0.249,0.221,north-northwest,0.6,No
2015/04/13,06:50,0.532,0.330,0.556,0.517,0.550,0.248,0.219,north-northwest,1.2,No
2015/04/13,07:00,0.534,0.330,0.557,0.516,0.552,0.247,0.221,north-northwest,0.8,No
2015/04/13,07:10,0.535,0.328,0.554,0.515,0.553,0.247,0.220,north-northwest,0.9,No
2015/04/13,07:20,0.535,0.329,0.554,0.517,0.549,0.248,0.220,north,0.8,No
2015/04/13,07:30,0.537,0.327,0.559,0.515,0.552,0.248,0.220,west,0.9,No
2015/04/13,07:40,0.532,0.329,0.555,0.516,0.550,0.248,0.219,-,CALM,No
2015/04/13,07:50,0.537,0.330,0.556,0.514,0.548,0.249,0.220,-,CALM,No
2015/04/13,08:00,0.532,0.329,0.554,0.513,0.552,0.248,0.219,-,CALM,No
2015/04/13,08:10,0.533,0.331,0.553,0.517,0.549,0.249,0.220,north-northwest,0.6,No
2015/04/13,08:20,0.536,0.330,0.556,0.514,0.553,0.249,0.219,north,0.8,No
2015/04/13,08:30,0.533,0.330,0.552,0.516,0.551,0.248,0.219,northwest,1.0,No
2015/04/13,08:40,0.537,0.330,0.556,0.517,0.554,0.248,0.219,north-northwest,0.8,No
2015/04/13,08:50,0.532,0.327,0.556,0.514,0.552,0.248,0.221,north,1.1,No
2015/04/13,09:00,0.536,0.330,0.554,0.518,0.553,0.248,0.220,north-northeast,0.8,No
2015/04/13,09:10,0.536,0.327,0.558,0.513,0.553,0.247,0.219,northeast,1.9,No
2015/04/13,09:20,0.534,0.330,0.553,0.516,0.550,0.248,0.220,northeast,1.6,No
2015/04/13,09:30,0.536,0.330,0.558,0.514,0.558,0.248,0.218,north,1.3,No
2015/04/13,09:40,0.534,0.329,0.553,0.516,0.549,0.248,0.220,northeast,2.1,No
2015/04/13,09:50,0.537,0.327,0.556,0.515,0.554,0.247,0.219,north-northeast,1.9,No
2015/04/13,10:00,0.532,0.329,0.552,0.514,0.547,0.248,0.220,north,2.1,No
2015/04/13,10:10,0.538,0.330,0.554,0.517,0.555,0.247,0.220,north-northeast,2.8,No
2015/04/13,10:20,0.534,0.328,0.556,0.515,0.551,0.247,0.219,north-northeast,1.4,No
2015/04/13,10:30,0.536,0.331,0.555,0.519,0.552,0.248,0.221,northeast,1.4,No
2015/04/13,10:40,0.534,0.330,0.556,0.514,0.552,0.248,0.220,northeast,1.2,No
2015/04/13,10:50,0.535,0.330,0.554,0.517,0.552,0.248,0.220,east-northeast,1.6,No
2015/04/13,11:00,0.535,0.327,0.556,0.515,0.550,0.248,0.221,east-southeast,0.8,No
2015/04/13,11:10,0.533,0.329,0.552,0.518,0.553,0.247,0.218,southeast,1.0,No
2015/04/13,11:20,0.535,0.328,0.557,0.514,0.552,0.247,0.219,east-southeast,1.3,No
2015/04/13,11:30,0.533,0.330,0.554,0.518,0.553,0.248,0.220,east,1.9,No
2015/04/13,11:40,0.535,0.328,0.558,0.516,0.552,0.247,0.218,east-northeast,2.5,No
2015/04/13,11:50,0.532,0.328,0.553,0.516,0.550,0.249,0.220,northeast,2.2,No
2015/04/13,12:00,0.537,0.329,0.558,0.516,0.553,0.248,0.219,east-northeast,2.1,No
2015/04/13,12:10,0.531,0.327,0.553,0.516,0.553,0.248,0.221,east,1.4,No
2015/04/13,12:20,0.536,0.330,0.557,0.517,0.554,0.248,0.218,east-southeast,1.3,No
2015/04/13,12:30,0.533,0.328,0.554,0.517,0.553,0.249,0.220,east-northeast,1.1,No
2015/04/13,12:40,0.535,0.330,0.558,0.519,0.554,0.247,0.220,northeast,1.0,Yes
2015/04/13,12:50,0.534,0.328,0.554,0.515,0.551,0.248,0.220,northeast,0.6,Yes
2015/04/13,13:00,0.533,0.329,0.555,0.518,0.556,0.246,0.220,east,0.7,Yes
2015/04/13,13:10,0.536,0.329,0.555,0.515,0.551,0.248,0.219,east,1.3,Yes
2015/04/13,13:20,0.532,0.329,0.555,0.518,0.555,0.248,0.219,east-northeast,1.4,Yes
2015/04/13,13:30,0.537,0.330,0.557,0.514,0.551,0.247,0.221,south-southwest,1.4,Yes
2015/04/13,13:40,0.530,0.328,0.552,0.512,0.550,0.247,0.220,west-southwest,7.6,Yes
2015/04/13,13:50,0.531,0.329,0.552,0.514,0.549,0.246,0.219,west-northwest,1.2,Yes
2015/04/13,14:00,0.530,0.327,0.549,0.509,0.546,0.247,0.218,-,CALM,Yes
2015/04/13,14:10,0.527,0.325,0.549,0.509,0.547,0.247,0.218,east-northeast,2.0,Yes
2015/04/13,14:20,0.529,0.326,0.550,0.506,0.547,0.246,0.216,northeast,1.4,Yes
2015/04/13,14:30,0.526,0.326,0.545,0.506,0.544,0.245,0.216,northeast,2.2,Yes
2015/04/13,14:40,0.528,0.328,0.547,0.507,0.545,0.245,0.217,northeast,2.2,Yes
2015/04/13,14:50,0.526,0.327,0.543,0.503,0.542,0.245,0.216,north-northeast,0.8,Yes
2015/04/13,15:00,0.524,0.324,0.541,0.500,0.544,0.244,0.215,west-northwest,2.1,Yes
2015/04/13,15:10,0.527,0.324,0.543,0.504,0.542,0.244,0.214,north-northeast,0.7,Yes
2015/04/13,15:20,0.523,0.323,0.538,0.500,0.542,0.244,0.215,northeast,3.0,Yes
2015/04/13,15:30,0.524,0.323,0.541,0.500,0.543,0.244,0.214,northeast,3.0,Yes
2015/04/13,15:40,0.525,0.325,0.540,0.502,0.543,0.244,0.214,northeast,2.8,Yes
2015/04/13,15:50,0.524,0.324,0.537,0.501,0.541,0.245,0.215,east-northeast,1.7,Yes
2015/04/13,16:00,0.525,0.324,0.541,0.503,0.543,0.244,0.215,northeast,1.9,Yes
2015/04/13,16:10,0.525,0.326,0.540,0.503,0.541,0.244,0.214,east-northeast,2.2,Yes
2015/04/13,16:20,0.523,0.325,0.538,0.500,0.542,0.244,0.215,east,0.8,Yes
2015/04/13,16:30,0.525,0.325,0.541,0.502,0.541,0.243,0.214,north-northwest,4.3,Yes
2015/04/13,16:40,0.520,0.324,0.536,0.496,0.538,0.243,0.214,north,3.9,Yes
2015/04/13,16:50,0.521,0.322,0.535,0.495,0.540,0.243,0.214,northeast,1.4,Yes
2015/04/13,17:00,0.522,0.323,0.537,0.496,0.540,0.242,0.214,east,1.3,Yes
2015/04/13,17:10,0.519,0.323,0.535,0.495,0.540,0.243,0.215,northeast,1.9,Yes
2015/04/13,17:20,0.524,0.323,0.537,0.497,0.541,0.242,0.213,north-northeast,1.8,Yes
2015/04/13,17:30,0.520,0.323,0.534,0.497,0.541,0.242,0.213,north-northeast,1.9,Yes
2015/04/13,17:40,0.522,0.323,0.535,0.497,0.540,0.242,0.215,north-northeast,2.5,Yes
2015/04/13,17:50,0.522,0.323,0.537,0.498,0.543,0.243,0.214,north,2.1,Yes
2015/04/13,18:00,0.520,0.324,0.537,0.499,0.542,0.243,0.214,north,2.2,Yes
2015/04/13,18:10,0.522,0.323,0.536,0.497,0.539,0.242,0.212,north,5.2,Yes
2015/04/13,18:20,0.521,0.321,0.538,0.496,0.541,0.243,0.213,north-northwest,2.0,Yes
2015/04/13,18:30,0.521,0.324,0.535,0.494,0.540,0.242,0.213,north-northwest,2.8,Yes
2015/04/13,18:40,0.523,0.324,0.535,0.497,0.539,0.242,0.212,north,2.8,Yes
2015/04/13,18:50,0.520,0.322,0.538,0.497,0.540,0.241,0.213,north,2.7,Yes
2015/04/13,19:00,0.520,0.323,0.536,0.497,0.540,0.242,0.214,north,2.8,Yes
2015/04/13,19:10,0.521,0.321,0.535,0.495,0.539,0.242,0.213,northwest,3.1,Yes
2015/04/13,19:20,0.520,0.321,0.537,0.498,0.543,0.242,0.213,northwest,2.8,Yes
2015/04/13,19:30,0.521,0.323,0.534,0.497,0.541,0.240,0.213,north-northwest,3.1,Yes
2015/04/13,19:40,0.521,0.323,0.536,0.497,0.538,0.241,0.212,north-northwest,2.9,Yes
2015/04/13,19:50,0.520,0.322,0.537,0.499,0.540,0.242,0.214,north-northwest,3.0,Yes
2015/04/13,20:00,0.521,0.323,0.534,0.498,0.540,0.242,0.213,north-northwest,3.1,Yes
2015/04/13,20:10,0.523,0.324,0.535,0.496,0.538,0.241,0.212,north-northwest,3.2,Yes
2015/04/13,20:20,0.519,0.321,0.538,0.498,0.538,0.242,0.214,north-northwest,3.9,Yes
2015/04/13,20:30,0.521,0.322,0.535,0.497,0.541,0.242,0.212,north-northwest,3.6,Yes
2015/04/13,20:40,0.521,0.324,0.533,0.497,0.537,0.242,0.213,north-northwest,3.3,Yes
2015/04/13,20:50,0.516,0.323,0.536,0.495,0.541,0.243,0.212,north-northwest,2.2,Yes
2015/04/13,21:00,0.521,0.322,0.531,0.492,0.538,0.242,0.213,north-northwest,2.2,Yes
2015/04/13,21:10,0.516,0.322,0.530,0.490,0.537,0.242,0.212,north,2.5,Yes
2015/04/13,21:20,0.514,0.321,0.527,0.488,0.537,0.241,0.211,north,3.4,Yes
2015/04/13,21:30,0.519,0.321,0.526,0.485,0.536,0.242,0.211,north,3.1,Yes
2015/04/13,21:40,0.516,0.323,0.528,0.487,0.537,0.241,0.214,north,3.0,Yes
2015/04/13,21:50,0.515,0.322,0.530,0.488,0.536,0.240,0.212,north,2.8,Yes
2015/04/13,22:00,0.515,0.322,0.523,0.485,0.536,0.240,0.212,north-northeast,3.8,Yes
2015/04/13,22:10,0.514,0.321,0.527,0.487,0.537,0.239,0.211,north-northeast,3.2,Yes
2015/04/13,22:20,0.514,0.321,0.528,0.490,0.537,0.240,0.213,north-northeast,2.3,Yes
2015/04/13,22:30,0.514,0.322,0.529,0.491,0.537,0.240,0.212,northeast,2.3,Yes
2015/04/13,22:40,0.514,0.323,0.530,0.489,0.539,0.240,0.212,north-northeast,2.6,Yes
2015/04/13,22:50,0.520,0.322,0.532,0.493,0.539,0.240,0.211,north-northeast,2.2,Yes
2015/04/13,23:00,0.516,0.322,0.530,0.491,0.536,0.239,0.212,north,2.8,Yes
2015/04/13,23:10,0.517,0.322,0.532,0.492,0.540,0.240,0.211,north,3.4,Yes
2015/04/13,23:20,0.518,0.321,0.532,0.495,0.540,0.239,0.212,north,3.1,Yes
2015/04/13,23:30,0.516,0.323,0.531,0.492,0.538,0.240,0.210,north,3.6,Yes
2015/04/13,23:40,0.520,0.319,0.535,0.495,0.540,0.240,0.211,north,3.0,Yes
2015/04/13,23:50,0.519,0.320,0.532,0.493,0.542,0.240,0.211,north-northeast,3.1,Yes
